Information on these data can be found in provided Readme document
Contact Info: Zachary Fasnacht (zachary.fasnacht@ssaihq.com); Nickolay Krotkov (nickolay.a.krotkov@nasa.gov); Lok Lamsal (lok.lamsal@nasa.gov)

FillValue: -999.
ScaleFactor: 1e15
Units: molecules/cm^2

Date(yyyy-mm-dd),City,Country,LonCenter,LatCenter,BoundingCoordinates,Median,Q1,Q3,Mean,Baseline_Median,Baseline_Q1,Baseline_Q3,Baseline_Mean,NumGoodSamples,NumTotalSamples
2015-01-01,NewDelhi,India,77.209,28.6139,[76.709 28.1139 77.709 29.1139],7.343,5.442,10.546,8.551,6.483,4.654,9.646,7.748,138.0,558.0
2015-01-02,NewDelhi,India,77.209,28.6139,[76.709 28.1139 77.709 29.1139],8.396,5.516,12.598,9.242,6.807,4.666,10.183,7.997,119.0,563.0
2015-01-03,NewDelhi,India,77.209,28.6139,[76.709 28.1139 77.709 29.1139],6.1,4.388,10.398,7.82,6.591,4.594,10.193,7.965,124.0,563.0
2015-01-04,NewDelhi,India,77.209,28.6139,[76.709 28.1139 77.709 29.1139],6.066,4.353,10.419,7.857,6.421,4.567,9.815,7.768,136.0,582.0
2015-01-05,NewDelhi,India,77.209,28.6139,[76.709 28.1139 77.709 29.1139],5.781,4.325,10.126,7.384,6.446,4.434,9.749,7.731,124.0,572.0
2015-01-06,NewDelhi,India,77.209,28.6139,[76.709 28.1139 77.709 29.1139],6.066,4.325,10.126,7.455,6.262,4.238,9.362,7.498,148.0,570.0
2015-01-07,NewDelhi,India,77.209,28.6139,[76.709 28.1139 77.709 29.1139],5.433,4.179,9.737,6.983,6.057,4.339,8.975,7.276,125.0,577.0
2015-01-08,NewDelhi,India,77.209,28.6139,[76.709 28.1139 77.709 29.1139],5.719,4.236,10.086,7.157,5.902,4.186,8.862,7.034,143.0,561.0
2015-01-09,NewDelhi,India,77.209,28.6139,[76.709 28.1139 77.709 29.1139],5.725,4.236,10.086,7.176,5.849,4.061,8.7,6.952,141.0,563.0
2015-01-10,NewDelhi,India,77.209,28.6139,[76.709 28.1139 77.709 29.1139],5.725,4.236,10.086,7.176,5.945,3.957,8.65,6.991,141.0,514.0
2015-01-11,NewDelhi,India,77.209,28.6139,[76.709 28.1139 77.709 29.1139],5.725,4.236,10.086,7.176,5.919,3.895,8.738,6.955,141.0,531.0
2015-01-12,NewDelhi,India,77.209,28.6139,[76.709 28.1139 77.709 29.1139],6.333,4.481,10.419,7.729,6.112,3.978,8.93,7.133,135.0,523.0
2015-01-13,NewDelhi,India,77.209,28.6139,[76.709 28.1139 77.709 29.1139],6.333,4.481,10.6,7.746,6.236,4.153,9.195,7.275,146.0,536.0
2015-01-14,NewDelhi,India,77.209,28.6139,[76.709 28.1139 77.709 29.1139],6.242,4.388,10.6,7.628,6.448,4.298,9.523,7.469,133.0,532.0
2015-01-15,NewDelhi,India,77.209,28.6139,[76.709 28.1139 77.709 29.1139],6.242,4.388,10.6,7.628,6.37,4.306,9.505,7.435,133.0,519.0
2015-01-16,NewDelhi,India,77.209,28.6139,[76.709 28.1139 77.709 29.1139],6.293,4.388,11.055,7.671,6.598,4.325,9.815,7.612,131.0,524.0
2015-01-17,NewDelhi,India,77.209,28.6139,[76.709 28.1139 77.709 29.1139],6.293,4.388,11.055,7.671,6.157,4.231,9.415,7.315,131.0,511.0
2015-01-18,NewDelhi,India,77.209,28.6139,[76.709 28.1139 77.709 29.1139],8.411,5.535,11.657,8.795,6.229,4.323,9.019,7.286,103.0,516.0
2015-01-19,NewDelhi,India,77.209,28.6139,[76.709 28.1139 77.709 29.1139],8.411,5.309,11.622,8.697,6.072,4.286,8.904,7.201,79.0,515.0
2015-01-20,NewDelhi,India,77.209,28.6139,[76.709 28.1139 77.709 29.1139],6.788,5.16,11.324,8.457,5.824,4.235,8.556,7.031,96.0,535.0
2015-01-21,NewDelhi,India,77.209,28.6139,[76.709 28.1139 77.709 29.1139],7.465,5.042,11.055,8.263,5.993,4.28,8.865,7.185,81.0,522.0
2015-01-22,NewDelhi,India,77.209,28.6139,[76.709 28.1139 77.709 29.1139],7.669,5.16,11.055,8.43,6.027,4.257,8.996,7.176,107.0,521.0
2015-01-23,NewDelhi,India,77.209,28.6139,[76.709 28.1139 77.709 29.1139],7.669,5.16,10.06,8.527,6.055,4.238,9.358,7.343,89.0,531.0
2015-01-24,NewDelhi,India,77.209,28.6139,[76.709 28.1139 77.709 29.1139],6.951,5.16,9.083,7.959,6.033,4.249,9.148,7.234,111.0,515.0
2015-01-25,NewDelhi,India,77.209,28.6139,[76.709 28.1139 77.709 29.1139],6.951,5.16,9.083,7.959,5.825,4.213,8.965,7.024,111.0,560.0
2015-01-26,NewDelhi,India,77.209,28.6139,[76.709 28.1139 77.709 29.1139],6.007,3.93,8.54,6.956,5.801,4.127,8.733,6.937,129.0,555.0
2015-01-27,NewDelhi,India,77.209,28.6139,[76.709 28.1139 77.709 29.1139],5.342,3.139,8.046,6.28,5.402,3.834,7.87,6.546,110.0,572.0
2015-01-28,NewDelhi,India,77.209,28.6139,[76.709 28.1139 77.709 29.1139],5.2,3.104,7.172,5.843,5.387,3.819,7.777,6.422,114.0,564.0
2015-01-29,NewDelhi,India,77.209,28.6139,[76.709 28.1139 77.709 29.1139],5.139,3.08,7.492,5.826,5.321,3.775,7.8,6.322,143.0,577.0
2015-01-30,NewDelhi,India,77.209,28.6139,[76.709 28.1139 77.709 29.1139],5.139,3.08,7.492,5.826,5.055,3.652,7.432,6.081,143.0,577.0
2015-01-31,NewDelhi,India,77.209,28.6139,[76.709 28.1139 77.709 29.1139],5.337,3.127,8.034,6.222,5.004,3.566,7.268,5.939,165.0,566.0
2015-02-01,NewDelhi,India,77.209,28.6139,[76.709 28.1139 77.709 29.1139],5.337,3.127,8.034,6.222,5.075,3.539,7.439,6.109,165.0,574.0
2015-02-02,NewDelhi,India,77.209,28.6139,[76.709 28.1139 77.709 29.1139],5.16,2.942,7.28,5.83,5.019,3.46,7.213,5.922,194.0,560.0
2015-02-03,NewDelhi,India,77.209,28.6139,[76.709 28.1139 77.709 29.1139],5.16,2.942,7.28,5.83,5.083,3.493,7.324,6.052,194.0,566.0
2015-02-04,NewDelhi,India,77.209,28.6139,[76.709 28.1139 77.709 29.1139],4.571,3.104,7.002,5.6,4.882,3.46,7.415,6.112,211.0,566.0
2015-02-05,NewDelhi,India,77.209,28.6139,[76.709 28.1139 77.709 29.1139],4.554,3.095,6.975,5.622,4.975,3.456,7.649,6.153,224.0,587.0
2015-02-06,NewDelhi,India,77.209,28.6139,[76.709 28.1139 77.709 29.1139],4.397,2.945,6.515,5.284,4.996,3.472,7.536,6.19,207.0,575.0
2015-02-07,NewDelhi,India,77.209,28.6139,[76.709 28.1139 77.709 29.1139],4.465,2.942,6.905,5.432,4.777,3.358,7.122,5.923,234.0,570.0
2015-02-08,NewDelhi,India,77.209,28.6139,[76.709 28.1139 77.709 29.1139],4.141,2.75,6.495,5.362,4.739,3.277,7.141,5.959,212.0,581.0
2015-02-09,NewDelhi,India,77.209,28.6139,[76.709 28.1139 77.709 29.1139],4.141,2.75,6.515,5.361,4.606,3.272,7.111,5.891,221.0,565.0
2015-02-10,NewDelhi,India,77.209,28.6139,[76.709 28.1139 77.709 29.1139],4.469,3.104,6.766,5.669,4.775,3.403,7.229,5.985,203.0,568.0
2015-02-11,NewDelhi,India,77.209,28.6139,[76.709 28.1139 77.709 29.1139],4.469,3.104,6.766,5.669,4.804,3.412,7.452,6.028,203.0,519.0
2015-02-12,NewDelhi,India,77.209,28.6139,[76.709 28.1139 77.709 29.1139],4.505,3.16,7.574,5.811,4.866,3.543,7.64,6.128,188.0,535.0
2015-02-13,NewDelhi,India,77.209,28.6139,[76.709 28.1139 77.709 29.1139],4.505,3.329,7.28,5.728,4.875,3.605,7.665,6.128,182.0,527.0
2015-02-14,NewDelhi,India,77.209,28.6139,[76.709 28.1139 77.709 29.1139],4.505,3.312,7.28,5.797,4.894,3.591,7.587,6.063,213.0,537.0
2015-02-15,NewDelhi,India,77.209,28.6139,[76.709 28.1139 77.709 29.1139],4.267,3.16,6.663,5.501,4.721,3.481,7.124,5.929,191.0,537.0
2015-02-16,NewDelhi,India,77.209,28.6139,[76.709 28.1139 77.709 29.1139],4.465,3.19,6.905,5.653,4.696,3.474,7.013,5.855,202.0,525.0
2015-02-17,NewDelhi,India,77.209,28.6139,[76.709 28.1139 77.709 29.1139],4.505,3.391,7.834,5.943,4.774,3.559,7.406,6.1,173.0,531.0
2015-02-18,NewDelhi,India,77.209,28.6139,[76.709 28.1139 77.709 29.1139],4.474,3.372,7.834,5.888,4.598,3.404,7.075,5.933,178.0,517.0
2015-02-19,NewDelhi,India,77.209,28.6139,[76.709 28.1139 77.709 29.1139],4.717,3.16,8.397,6.176,4.588,3.361,7.021,5.796,137.0,521.0
2015-02-20,NewDelhi,India,77.209,28.6139,[76.709 28.1139 77.709 29.1139],5.299,3.392,7.644,5.872,4.678,3.363,6.677,5.624,155.0,522.0
2015-02-21,NewDelhi,India,77.209,28.6139,[76.709 28.1139 77.709 29.1139],5.53,3.549,7.833,6.383,4.783,3.428,6.953,5.838,166.0,544.0
2015-02-22,NewDelhi,India,77.209,28.6139,[76.709 28.1139 77.709 29.1139],5.53,3.566,7.644,6.284,4.954,3.548,7.0,5.926,139.0,532.0
2015-02-23,NewDelhi,India,77.209,28.6139,[76.709 28.1139 77.709 29.1139],5.53,3.538,7.644,6.231,4.86,3.415,6.993,5.816,141.0,527.0
2015-02-24,NewDelhi,India,77.209,28.6139,[76.709 28.1139 77.709 29.1139],5.53,3.462,7.644,6.298,4.8,3.424,6.961,5.863,132.0,537.0
2015-02-25,NewDelhi,India,77.209,28.6139,[76.709 28.1139 77.709 29.1139],4.995,3.312,7.353,5.902,4.532,3.319,6.665,5.627,155.0,519.0
2015-02-26,NewDelhi,India,77.209,28.6139,[76.709 28.1139 77.709 29.1139],4.995,3.312,7.353,5.902,4.496,3.222,6.609,5.533,155.0,563.0
2015-02-27,NewDelhi,India,77.209,28.6139,[76.709 28.1139 77.709 29.1139],3.723,2.265,6.412,4.874,4.108,2.891,6.225,5.224,195.0,560.0
2015-02-28,NewDelhi,India,77.209,28.6139,[76.709 28.1139 77.709 29.1139],3.635,2.029,6.355,4.811,4.084,2.876,6.104,5.159,172.0,576.0
2015-03-01,NewDelhi,India,77.209,28.6139,[76.709 28.1139 77.709 29.1139],3.239,1.742,5.563,4.188,4.049,2.798,6.118,5.109,165.0,568.0
2015-03-02,NewDelhi,India,77.209,28.6139,[76.709 28.1139 77.709 29.1139],3.066,1.699,5.486,4.084,4.081,2.808,6.295,5.141,194.0,579.0
2015-03-03,NewDelhi,India,77.209,28.6139,[76.709 28.1139 77.709 29.1139],3.029,1.69,4.995,3.856,3.873,2.756,5.992,4.888,183.0,575.0
2015-03-04,NewDelhi,India,77.209,28.6139,[76.709 28.1139 77.709 29.1139],3.029,1.699,4.995,3.858,3.735,2.688,5.69,4.665,202.0,563.0
2015-03-05,NewDelhi,India,77.209,28.6139,[76.709 28.1139 77.709 29.1139],3.029,1.699,4.995,3.869,3.754,2.653,5.906,4.634,197.0,568.0
2015-03-06,NewDelhi,India,77.209,28.6139,[76.709 28.1139 77.709 29.1139],3.063,1.699,4.995,3.872,3.682,2.6,5.69,4.574,201.0,555.0
2015-03-07,NewDelhi,India,77.209,28.6139,[76.709 28.1139 77.709 29.1139],2.248,1.524,3.971,3.269,3.608,2.649,5.662,4.547,161.0,562.0
2015-03-08,NewDelhi,India,77.209,28.6139,[76.709 28.1139 77.709 29.1139],2.204,1.503,3.476,2.654,3.445,2.531,5.131,4.061,141.0,560.0
2015-03-09,NewDelhi,India,77.209,28.6139,[76.709 28.1139 77.709 29.1139],2.224,1.524,3.723,2.762,3.451,2.499,5.181,4.082,156.0,581.0
2015-03-10,NewDelhi,India,77.209,28.6139,[76.709 28.1139 77.709 29.1139],2.33,1.573,3.971,2.881,3.331,2.423,5.078,3.914,163.0,568.0
2015-03-11,NewDelhi,India,77.209,28.6139,[76.709 28.1139 77.709 29.1139],2.454,1.616,3.971,2.957,3.334,2.401,4.959,3.846,191.0,564.0
2015-03-12,NewDelhi,India,77.209,28.6139,[76.709 28.1139 77.709 29.1139],2.265,1.579,3.723,2.873,3.358,2.418,5.027,3.874,168.0,575.0
2015-03-13,NewDelhi,India,77.209,28.6139,[76.709 28.1139 77.709 29.1139],2.265,1.579,3.723,2.873,3.446,2.349,5.015,3.88,168.0,561.0
2015-03-14,NewDelhi,India,77.209,28.6139,[76.709 28.1139 77.709 29.1139],3.025,1.627,4.369,3.245,3.66,2.439,5.26,4.051,128.0,563.0
2015-03-15,NewDelhi,India,77.209,28.6139,[76.709 28.1139 77.709 29.1139],3.025,1.627,4.369,3.245,3.52,2.337,5.221,3.953,128.0,515.0
2015-03-16,NewDelhi,India,77.209,28.6139,[76.709 28.1139 77.709 29.1139],3.313,2.094,4.885,3.759,3.541,2.43,5.166,3.966,104.0,534.0
2015-03-17,NewDelhi,India,77.209,28.6139,[76.709 28.1139 77.709 29.1139],3.4,2.639,4.832,4.081,3.461,2.424,5.031,3.91,106.0,525.0
2015-03-18,NewDelhi,India,77.209,28.6139,[76.709 28.1139 77.709 29.1139],3.471,2.653,5.037,4.403,3.515,2.343,5.063,3.972,137.0,537.0
2015-03-19,NewDelhi,India,77.209,28.6139,[76.709 28.1139 77.709 29.1139],3.67,2.66,4.964,4.484,3.475,2.346,4.992,3.908,118.0,535.0
2015-03-20,NewDelhi,India,77.209,28.6139,[76.709 28.1139 77.709 29.1139],3.506,2.653,4.964,4.352,3.414,2.341,4.907,3.872,140.0,522.0
2015-03-21,NewDelhi,India,77.209,28.6139,[76.709 28.1139 77.709 29.1139],3.506,2.653,5.037,4.404,3.451,2.352,5.02,3.935,141.0,529.0
2015-03-22,NewDelhi,India,77.209,28.6139,[76.709 28.1139 77.709 29.1139],3.506,2.653,5.037,4.404,3.357,2.383,4.822,3.9,141.0,513.0
2015-03-23,NewDelhi,India,77.209,28.6139,[76.709 28.1139 77.709 29.1139],3.506,2.653,5.037,4.404,3.353,2.368,4.763,3.889,141.0,518.0
2015-03-24,NewDelhi,India,77.209,28.6139,[76.709 28.1139 77.709 29.1139],3.254,2.248,4.508,3.871,3.282,2.3,4.642,3.793,161.0,519.0
2015-03-25,NewDelhi,India,77.209,28.6139,[76.709 28.1139 77.709 29.1139],3.25,2.235,4.508,4.007,3.408,2.371,4.794,3.932,171.0,542.0
2015-03-26,NewDelhi,India,77.209,28.6139,[76.709 28.1139 77.709 29.1139],3.268,2.235,4.508,4.032,3.406,2.38,4.789,3.956,153.0,527.0
2015-03-27,NewDelhi,India,77.209,28.6139,[76.709 28.1139 77.709 29.1139],3.268,2.235,4.584,4.058,3.46,2.449,4.832,4.015,174.0,524.0
2015-03-28,NewDelhi,India,77.209,28.6139,[76.709 28.1139 77.709 29.1139],3.25,2.235,4.584,4.04,3.504,2.516,4.978,4.161,181.0,531.0
2015-03-29,NewDelhi,India,77.209,28.6139,[76.709 28.1139 77.709 29.1139],3.25,2.284,4.686,4.128,3.435,2.503,4.89,4.099,205.0,513.0
2015-03-30,NewDelhi,India,77.209,28.6139,[76.709 28.1139 77.709 29.1139],3.25,2.284,4.686,4.128,3.501,2.552,4.988,4.183,205.0,560.0
2015-03-31,NewDelhi,India,77.209,28.6139,[76.709 28.1139 77.709 29.1139],3.342,2.421,4.59,4.08,3.658,2.628,5.317,4.356,240.0,554.0
2015-04-01,NewDelhi,India,77.209,28.6139,[76.709 28.1139 77.709 29.1139],3.29,2.314,4.59,4.051,3.77,2.728,5.486,4.482,213.0,570.0
2015-04-02,NewDelhi,India,77.209,28.6139,[76.709 28.1139 77.709 29.1139],3.176,2.27,4.484,3.671,3.772,2.785,5.564,4.473,212.0,563.0
2015-04-03,NewDelhi,India,77.209,28.6139,[76.709 28.1139 77.709 29.1139],3.176,2.248,4.47,3.651,3.814,2.806,5.693,4.539,244.0,575.0
2015-04-04,NewDelhi,India,77.209,28.6139,[76.709 28.1139 77.709 29.1139],3.254,2.284,4.561,3.927,3.898,2.881,5.661,4.624,249.0,576.0
2015-04-05,NewDelhi,India,77.209,28.6139,[76.709 28.1139 77.709 29.1139],3.244,2.284,4.561,3.902,3.93,2.929,5.657,4.644,244.0,563.0
2015-04-06,NewDelhi,India,77.209,28.6139,[76.709 28.1139 77.709 29.1139],3.254,2.284,4.561,3.908,4.096,3.009,5.725,4.676,249.0,568.0
2015-04-07,NewDelhi,India,77.209,28.6139,[76.709 28.1139 77.709 29.1139],3.362,2.317,4.59,3.964,4.156,3.04,5.862,4.756,273.0,555.0
2015-04-08,NewDelhi,India,77.209,28.6139,[76.709 28.1139 77.709 29.1139],3.465,2.675,4.998,4.236,4.246,3.194,5.969,4.884,238.0,560.0
2015-04-09,NewDelhi,India,77.209,28.6139,[76.709 28.1139 77.709 29.1139],3.571,2.675,4.998,4.16,4.355,3.213,5.963,4.913,224.0,559.0
2015-04-10,NewDelhi,India,77.209,28.6139,[76.709 28.1139 77.709 29.1139],3.438,2.668,4.998,4.152,4.316,3.216,5.923,4.907,248.0,585.0
2015-04-11,NewDelhi,India,77.209,28.6139,[76.709 28.1139 77.709 29.1139],3.648,2.717,5.213,4.231,4.262,3.21,5.945,4.885,237.0,571.0
2015-04-12,NewDelhi,India,77.209,28.6139,[76.709 28.1139 77.709 29.1139],3.831,2.748,5.24,4.357,4.323,3.239,5.867,4.881,256.0,569.0
2015-04-13,NewDelhi,India,77.209,28.6139,[76.709 28.1139 77.709 29.1139],3.873,2.793,5.458,4.475,4.506,3.417,5.999,5.042,255.0,578.0
2015-04-14,NewDelhi,India,77.209,28.6139,[76.709 28.1139 77.709 29.1139],4.074,2.93,5.379,4.491,4.561,3.458,5.958,5.034,279.0,561.0
2015-04-15,NewDelhi,India,77.209,28.6139,[76.709 28.1139 77.709 29.1139],4.074,2.769,5.619,4.648,4.501,3.375,5.845,4.939,244.0,563.0
2015-04-16,NewDelhi,India,77.209,28.6139,[76.709 28.1139 77.709 29.1139],4.074,2.769,5.619,4.658,4.538,3.391,5.984,5.015,240.0,515.0
2015-04-17,NewDelhi,India,77.209,28.6139,[76.709 28.1139 77.709 29.1139],4.465,3.348,6.05,5.127,4.664,3.597,6.056,5.105,211.0,532.0
2015-04-18,NewDelhi,India,77.209,28.6139,[76.709 28.1139 77.709 29.1139],4.748,3.653,6.021,5.213,4.662,3.609,6.087,5.113,209.0,526.0
2015-04-19,NewDelhi,India,77.209,28.6139,[76.709 28.1139 77.709 29.1139],4.65,3.433,5.678,4.905,4.717,3.585,6.176,5.186,212.0,536.0
2015-04-20,NewDelhi,India,77.209,28.6139,[76.709 28.1139 77.709 29.1139],4.601,3.468,5.678,4.903,4.72,3.616,6.284,5.202,239.0,537.0
2015-04-21,NewDelhi,India,77.209,28.6139,[76.709 28.1139 77.709 29.1139],4.671,3.491,5.922,4.939,4.797,3.621,6.41,5.24,256.0,527.0
2015-04-22,NewDelhi,India,77.209,28.6139,[76.709 28.1139 77.709 29.1139],4.684,3.57,5.941,4.984,4.866,3.709,6.554,5.331,246.0,533.0
2015-04-23,NewDelhi,India,77.209,28.6139,[76.709 28.1139 77.709 29.1139],4.589,3.342,5.739,4.717,4.941,3.681,6.623,5.34,274.0,519.0
2015-04-24,NewDelhi,India,77.209,28.6139,[76.709 28.1139 77.709 29.1139],4.467,3.338,5.739,4.705,4.854,3.578,6.544,5.29,269.0,524.0
2015-04-25,NewDelhi,India,77.209,28.6139,[76.709 28.1139 77.709 29.1139],4.647,3.523,5.711,4.842,4.921,3.679,6.493,5.344,276.0,520.0
2015-04-26,NewDelhi,India,77.209,28.6139,[76.709 28.1139 77.709 29.1139],4.671,3.523,5.941,4.984,4.946,3.714,6.457,5.385,301.0,542.0
2015-04-27,NewDelhi,India,77.209,28.6139,[76.709 28.1139 77.709 29.1139],4.746,3.578,6.021,5.025,4.969,3.72,6.457,5.373,288.0,535.0
2015-04-28,NewDelhi,India,77.209,28.6139,[76.709 28.1139 77.709 29.1139],4.748,3.578,6.03,5.032,4.943,3.682,6.403,5.328,292.0,531.0
2015-04-29,NewDelhi,India,77.209,28.6139,[76.709 28.1139 77.709 29.1139],4.81,3.579,6.24,5.129,4.988,3.686,6.484,5.363,294.0,535.0
2015-04-30,NewDelhi,India,77.209,28.6139,[76.709 28.1139 77.709 29.1139],4.853,3.725,6.198,5.117,4.997,3.744,6.556,5.391,316.0,516.0
2015-05-01,NewDelhi,India,77.209,28.6139,[76.709 28.1139 77.709 29.1139],4.853,3.725,6.198,5.117,4.942,3.708,6.487,5.33,316.0,561.0
2015-05-02,NewDelhi,India,77.209,28.6139,[76.709 28.1139 77.709 29.1139],4.86,3.653,6.036,5.047,4.93,3.71,6.486,5.341,355.0,555.0
2015-05-03,NewDelhi,India,77.209,28.6139,[76.709 28.1139 77.709 29.1139],4.871,3.57,6.196,5.08,5.034,3.697,6.524,5.362,325.0,571.0
2015-05-04,NewDelhi,India,77.209,28.6139,[76.709 28.1139 77.709 29.1139],4.782,3.578,6.036,5.017,4.964,3.674,6.372,5.291,323.0,569.0
2015-05-05,NewDelhi,India,77.209,28.6139,[76.709 28.1139 77.709 29.1139],4.86,3.578,6.068,5.062,5.054,3.691,6.457,5.367,327.0,579.0
2015-05-06,NewDelhi,India,77.209,28.6139,[76.709 28.1139 77.709 29.1139],4.842,3.578,6.036,5.061,5.046,3.718,6.538,5.386,308.0,579.0
2015-05-07,NewDelhi,India,77.209,28.6139,[76.709 28.1139 77.709 29.1139],5.001,3.725,6.173,5.206,5.098,3.762,6.43,5.391,317.0,567.0
2015-05-08,NewDelhi,India,77.209,28.6139,[76.709 28.1139 77.709 29.1139],5.122,3.894,6.437,5.43,5.044,3.798,6.368,5.383,296.0,572.0
2015-05-09,NewDelhi,India,77.209,28.6139,[76.709 28.1139 77.709 29.1139],5.114,3.854,6.481,5.467,5.127,3.868,6.417,5.422,324.0,556.0
2015-05-10,NewDelhi,India,77.209,28.6139,[76.709 28.1139 77.709 29.1139],5.251,3.828,6.536,5.552,5.098,3.817,6.415,5.418,283.0,562.0
2015-05-11,NewDelhi,India,77.209,28.6139,[76.709 28.1139 77.709 29.1139],4.871,3.646,6.068,5.129,5.014,3.872,6.319,5.36,288.0,562.0
2015-05-12,NewDelhi,India,77.209,28.6139,[76.709 28.1139 77.709 29.1139],4.794,3.646,5.981,5.148,5.059,3.975,6.434,5.46,284.0,579.0
2015-05-13,NewDelhi,India,77.209,28.6139,[76.709 28.1139 77.709 29.1139],4.779,3.669,5.886,5.065,5.041,3.963,6.436,5.42,270.0,570.0
2015-05-14,NewDelhi,India,77.209,28.6139,[76.709 28.1139 77.709 29.1139],4.779,3.686,5.749,5.025,5.05,4.056,6.322,5.437,269.0,569.0
2015-05-15,NewDelhi,India,77.209,28.6139,[76.709 28.1139 77.709 29.1139],4.76,3.624,5.779,5.027,5.11,4.119,6.362,5.48,273.0,578.0
2015-05-16,NewDelhi,India,77.209,28.6139,[76.709 28.1139 77.709 29.1139],4.728,3.548,5.749,4.986,5.161,4.118,6.383,5.497,295.0,560.0
2015-05-17,NewDelhi,India,77.209,28.6139,[76.709 28.1139 77.709 29.1139],4.602,3.571,5.749,5.052,5.088,4.091,6.356,5.473,255.0,563.0
2015-05-18,NewDelhi,India,77.209,28.6139,[76.709 28.1139 77.709 29.1139],4.602,3.571,5.749,5.052,5.126,4.068,6.467,5.522,255.0,514.0
2015-05-19,NewDelhi,India,77.209,28.6139,[76.709 28.1139 77.709 29.1139],4.759,3.646,5.85,5.225,5.168,4.154,6.522,5.615,227.0,525.0
2015-05-20,NewDelhi,India,77.209,28.6139,[76.709 28.1139 77.709 29.1139],4.643,3.477,5.749,5.028,5.098,4.043,6.436,5.51,226.0,520.0
2015-05-21,NewDelhi,India,77.209,28.6139,[76.709 28.1139 77.709 29.1139],4.638,3.467,5.749,5.065,5.115,4.009,6.446,5.506,252.0,530.0
2015-05-22,NewDelhi,India,77.209,28.6139,[76.709 28.1139 77.709 29.1139],4.543,3.46,5.725,4.975,5.108,4.04,6.44,5.504,254.0,530.0
2015-05-23,NewDelhi,India,77.209,28.6139,[76.709 28.1139 77.709 29.1139],4.59,3.477,5.829,5.055,5.105,4.041,6.429,5.518,269.0,519.0
2015-05-24,NewDelhi,India,77.209,28.6139,[76.709 28.1139 77.709 29.1139],4.45,3.448,5.749,4.909,5.133,4.033,6.457,5.528,255.0,529.0
2015-05-25,NewDelhi,India,77.209,28.6139,[76.709 28.1139 77.709 29.1139],4.49,3.46,5.749,4.917,5.192,4.066,6.499,5.555,261.0,515.0
2015-05-26,NewDelhi,India,77.209,28.6139,[76.709 28.1139 77.709 29.1139],4.704,3.611,5.927,5.192,5.263,4.104,6.498,5.616,221.0,520.0
2015-05-27,NewDelhi,India,77.209,28.6139,[76.709 28.1139 77.709 29.1139],4.638,3.571,5.817,4.963,5.148,4.015,6.418,5.504,228.0,518.0
2015-05-28,NewDelhi,India,77.209,28.6139,[76.709 28.1139 77.709 29.1139],4.67,3.571,5.881,5.177,5.151,4.046,6.455,5.57,249.0,538.0
2015-05-29,NewDelhi,India,77.209,28.6139,[76.709 28.1139 77.709 29.1139],4.705,3.579,6.16,5.289,5.132,3.957,6.51,5.569,236.0,531.0
2015-05-30,NewDelhi,India,77.209,28.6139,[76.709 28.1139 77.709 29.1139],4.718,3.686,6.321,5.354,5.045,3.842,6.559,5.484,237.0,526.0
2015-05-31,NewDelhi,India,77.209,28.6139,[76.709 28.1139 77.709 29.1139],4.92,4.019,6.471,5.513,5.074,3.909,6.522,5.485,240.0,534.0
2015-06-01,NewDelhi,India,77.209,28.6139,[76.709 28.1139 77.709 29.1139],5.022,4.031,6.839,5.603,5.089,3.884,6.618,5.526,263.0,517.0
2015-06-02,NewDelhi,India,77.209,28.6139,[76.709 28.1139 77.709 29.1139],5.022,4.031,6.839,5.603,5.08,3.88,6.609,5.482,263.0,562.0
2015-06-03,NewDelhi,India,77.209,28.6139,[76.709 28.1139 77.709 29.1139],4.702,3.686,6.31,5.321,4.898,3.801,6.449,5.348,286.0,559.0
2015-06-04,NewDelhi,India,77.209,28.6139,[76.709 28.1139 77.709 29.1139],4.805,3.911,6.726,5.518,5.017,3.922,6.594,5.453,256.0,573.0
2015-06-05,NewDelhi,India,77.209,28.6139,[76.709 28.1139 77.709 29.1139],4.705,3.895,6.16,5.309,5.039,3.879,6.491,5.401,257.0,565.0
2015-06-06,NewDelhi,India,77.209,28.6139,[76.709 28.1139 77.709 29.1139],4.573,3.722,5.974,5.219,5.008,3.843,6.436,5.366,261.0,575.0
2015-06-07,NewDelhi,India,77.209,28.6139,[76.709 28.1139 77.709 29.1139],4.569,3.645,5.842,5.151,5.013,3.896,6.319,5.335,240.0,575.0
2015-06-08,NewDelhi,India,77.209,28.6139,[76.709 28.1139 77.709 29.1139],4.705,3.77,6.4,5.354,4.924,3.897,6.297,5.314,237.0,561.0
2015-06-09,NewDelhi,India,77.209,28.6139,[76.709 28.1139 77.709 29.1139],4.705,3.77,6.4,5.37,4.842,3.835,6.179,5.254,244.0,569.0
2015-06-10,NewDelhi,India,77.209,28.6139,[76.709 28.1139 77.709 29.1139],4.805,3.77,6.471,5.387,4.907,3.881,6.28,5.263,272.0,555.0
2015-06-11,NewDelhi,India,77.209,28.6139,[76.709 28.1139 77.709 29.1139],4.876,3.895,6.54,5.492,4.91,3.92,6.171,5.246,256.0,562.0
2015-06-12,NewDelhi,India,77.209,28.6139,[76.709 28.1139 77.709 29.1139],4.805,4.019,6.103,5.217,4.895,3.964,6.167,5.207,262.0,560.0
2015-06-13,NewDelhi,India,77.209,28.6139,[76.709 28.1139 77.709 29.1139],4.676,3.895,5.875,5.081,4.823,3.884,6.046,5.137,284.0,579.0
2015-06-14,NewDelhi,India,77.209,28.6139,[76.709 28.1139 77.709 29.1139],4.676,3.827,5.858,5.029,4.862,3.888,6.114,5.192,267.0,571.0
2015-06-15,NewDelhi,India,77.209,28.6139,[76.709 28.1139 77.709 29.1139],4.676,3.819,5.858,4.988,4.844,3.909,6.112,5.189,252.0,569.0
2015-06-16,NewDelhi,India,77.209,28.6139,[76.709 28.1139 77.709 29.1139],4.676,3.77,5.858,4.941,4.88,3.923,6.165,5.205,249.0,578.0
2015-06-17,NewDelhi,India,77.209,28.6139,[76.709 28.1139 77.709 29.1139],4.681,3.659,5.875,5.036,4.837,3.836,6.149,5.161,268.0,562.0
2015-06-18,NewDelhi,India,77.209,28.6139,[76.709 28.1139 77.709 29.1139],4.808,4.03,6.206,5.252,4.852,3.842,6.124,5.178,245.0,563.0
2015-06-19,NewDelhi,India,77.209,28.6139,[76.709 28.1139 77.709 29.1139],4.808,4.03,6.206,5.252,4.772,3.801,6.128,5.129,245.0,536.0
2015-06-20,NewDelhi,India,77.209,28.6139,[76.709 28.1139 77.709 29.1139],5.093,4.039,6.4,5.433,4.776,3.713,6.065,5.067,215.0,552.0
2015-06-21,NewDelhi,India,77.209,28.6139,[76.709 28.1139 77.709 29.1139],5.018,4.086,6.219,5.378,4.698,3.656,5.95,5.005,216.0,546.0
2015-06-22,NewDelhi,India,77.209,28.6139,[76.709 28.1139 77.709 29.1139],4.896,4.049,6.206,5.327,4.647,3.564,5.957,4.974,244.0,557.0
2015-06-23,NewDelhi,India,77.209,28.6139,[76.709 28.1139 77.709 29.1139],4.827,4.039,6.084,5.193,4.608,3.499,5.934,4.919,241.0,556.0
2015-06-24,NewDelhi,India,77.209,28.6139,[76.709 28.1139 77.709 29.1139],4.77,3.993,6.084,5.15,4.496,3.458,5.93,4.874,250.0,542.0
2015-06-25,NewDelhi,India,77.209,28.6139,[76.709 28.1139 77.709 29.1139],4.676,3.982,5.99,5.12,4.47,3.447,5.897,4.858,235.0,547.0
2015-06-26,NewDelhi,India,77.209,28.6139,[76.709 28.1139 77.709 29.1139],4.591,3.763,5.875,4.937,4.388,3.398,5.834,4.782,255.0,531.0
2015-06-27,NewDelhi,India,77.209,28.6139,[76.709 28.1139 77.709 29.1139],4.491,3.553,6.005,4.952,4.24,3.207,5.643,4.63,215.0,538.0